Starlink 3246

operational
NORAD ID: 49732 Int'l Des: 2021-115 Owner: SPXS Country: US Constellation: starlink
LEOCIRCULAR

Starlink 3246について

説明を読み込み中...

リアルタイム位置

3D地球を読み込み中...

次回通過

高度履歴

Altitude vs Time

uPlot chart will show altitude changes over time

軌道要素

1 49732U 21115J 26035.48427156 .00000156 00000-0 27897-4 0 9997
2 49732 53.2180 308.3419 0001324 81.9592 278.1550 15.08836746230379
Epoch: Feb 4, 2026 • Age: 11 hours

現在のステータス

高度 554.3 km
速度 7.58 km/s
衛星直下点 -41.31°S, 59.09°E
打ち上げ日 Dec 2, 2021
運用期間 4.1 years
タイプ internet

技術仕様

分類 Payload
質量 290.00 kg
乾燥質量 270.00 kg
総質量 290.00 kg
長さ 0.20 m
直径 2.80 m
スパン 9.00 m
形状 Box + pan
製造者 SPXS
バスタイプ Starlink
フェーズステータス In Orbit
所有者/国 SPXS/US

大規模コンステレーション

Loading constellations...